When you browse on this site, cookies collect data to enhance your experience and personalize the content and advertising you see.
Visit our Privacy Policy to learn more. By continuing to use the site, you agree to this use of cookies and data.
  • In Czech Republic
  • List of Countries
  • For 7 days
  • Water Temperature
  • Weather Map
  • Weather Widgets
  • user-avatar
    Login

    Hourly Weather Brussels

    Today, 6 June, Saturday

    Time Temperature Precipitation Wind Pressure Humidity
    00:00 +7°C° 0.1 mm 4 mps 745 mmHg 88%
    01:00 +7°C° 0 mm 4 mps 745 mmHg 88%
    02:00 +7°C° 0 mm 4 mps 745 mmHg 89%
    03:00 +7°C° 0 mm 5 mps 745 mmHg 89%
    04:00 +7°C° 0.2 mm 5 mps 745 mmHg 87%
    05:00 +8°C° 0.2 mm 5 mps 746 mmHg 85%
    06:00 +9°C° 0.2 mm 5 mps 746 mmHg 83%
    07:00 +10°C° 0.2 mm 6 mps 746 mmHg 75%
    08:00 +11°C° 0.2 mm 7 mps 746 mmHg 66%
    09:00 +12°C° 0.2 mm 7 mps 746 mmHg 58%
    10:00 +13°C° 0 mm 8 mps 746 mmHg 55%
    11:00 +13°C° 0 mm 9 mps 746 mmHg 52%
    12:00 +15°C° 0 mm 9 mps 746 mmHg 49%
    13:00 +15°C° 0 mm 9 mps 747 mmHg 49%
    14:00 +15°C° 0 mm 9 mps 747 mmHg 49%
    15:00 +14°C° 0 mm 10 mps 747 mmHg 50%
    16:00 +13°C° 0 mm 9 mps 747 mmHg 53%
    17:00 +12°C° 0 mm 8 mps 747 mmHg 57%
    18:00 +11°C° 0 mm 7 mps 747 mmHg 60%
    19:00 +11°C° 0 mm 7 mps 747 mmHg 63%
    20:00 +10°C° 0 mm 7 mps 748 mmHg 66%
    21:00 +10°C° 0 mm 7 mps 748 mmHg 69%
    22:00 +10°C° 0.1 mm 7 mps 748 mmHg 75%
    23:00 +9°C° 0.1 mm 7 mps 748 mmHg 80%

    Tomorrow, 7 June, Sunday

    Time Temperature Precipitation Wind Pressure Humidity
    00:00 +9°C° 0.1 mm 7 mps 748 mmHg 85%
    01:00 +9°C° 0.1 mm 7 mps 748 mmHg 87%
    02:00 +9°C° 0.1 mm 6 mps 748 mmHg 89%
    03:00 +9°C° 0.1 mm 6 mps 748 mmHg 91%
    04:00 +9°C° 0 mm 6 mps 749 mmHg 89%
    05:00 +9°C° 0 mm 5 mps 749 mmHg 87%
    06:00 +10°C° 0 mm 5 mps 750 mmHg 85%
    07:00 +12°C° 0.1 mm 5 mps 750 mmHg 77%
    08:00 +14°C° 0.1 mm 5 mps 751 mmHg 69%
    09:00 +15°C° 0.1 mm 5 mps 751 mmHg 62%
    10:00 +16°C° 0 mm 5 mps 752 mmHg 59%
    11:00 +16°C° 0 mm 5 mps 752 mmHg 55%
    12:00 +17°C° 0 mm 5 mps 752 mmHg 52%
    13:00 +17°C° 0 mm 5 mps 753 mmHg 52%
    14:00 +18°C° 0 mm 4 mps 753 mmHg 52%
    15:00 +18°C° 0 mm 4 mps 753 mmHg 53%
    16:00 +18°C° 0 mm 3 mps 753 mmHg 56%
    17:00 +18°C° 0 mm 2 mps 753 mmHg 59%
    18:00 +18°C° 0 mm 1 mps 754 mmHg 62%
    19:00 +16°C° 0 mm 1 mps 754 mmHg 67%
    20:00 +14°C° 0 mm 1 mps 755 mmHg 72%
    21:00 +11°C° 0 mm 0 mps 755 mmHg 77%
    22:00 +12°C° 0 mm 1 mps 755 mmHg 78%
    23:00 +12°C° 0 mm 1 mps 755 mmHg 79%

    Day after tomorrow, 8 June, Monday

    Time Temperature Precipitation Wind Pressure Humidity
    00:00 +12°C° 0 mm 1 mps 755 mmHg 80%
    01:00 +11°C° 0 mm 1 mps 755 mmHg 82%
    02:00 +11°C° 0 mm 1 mps 755 mmHg 84%
    03:00 +11°C° 0 mm 1 mps 755 mmHg 86%
    04:00 +12°C° 0 mm 2 mps 756 mmHg 84%
    05:00 +12°C° 0 mm 2 mps 756 mmHg 83%
    06:00 +13°C° 0 mm 2 mps 756 mmHg 81%
    07:00 +15°C° 0.1 mm 2 mps 756 mmHg 76%
    08:00 +16°C° 0.1 mm 2 mps 756 mmHg 71%
    09:00 +18°C° 0.1 mm 2 mps 757 mmHg 66%
    10:00 +18°C° 0.3 mm 3 mps 757 mmHg 64%
    11:00 +19°C° 0.3 mm 3 mps 756 mmHg 62%
    12:00 +20°C° 0.3 mm 4 mps 756 mmHg 61%
    13:00 +19°C° 0.4 mm 4 mps 756 mmHg 61%
    14:00 +19°C° 0.4 mm 5 mps 756 mmHg 62%
    15:00 +19°C° 0.4 mm 5 mps 756 mmHg 63%
    16:00 +17°C° 0 mm 5 mps 756 mmHg 65%
    17:00 +16°C° 0 mm 5 mps 756 mmHg 67%
    18:00 +16°C° 0 mm 5 mps 757 mmHg 69%
    19:00 +14°C° 0 mm 4 mps 757 mmHg 76%
    20:00 +13°C° 0 mm 3 mps 758 mmHg 83%
    21:00 +11°C° 0 mm 3 mps 758 mmHg 89%
    22:00 +11°C° 0 mm 3 mps 758 mmHg 90%
    23:00 +10°C° 0 mm 3 mps 758 mmHg 90%

    9 June, Tuesday

    Time Temperature Precipitation Wind Pressure Humidity
    00:00 +10°C° 0 mm 3 mps 758 mmHg 90%
    01:00 +10°C° 0 mm 3 mps 758 mmHg 90%
    02:00 +10°C° 0 mm 3 mps 759 mmHg 90%
    03:00 +9°C° 0 mm 3 mps 759 mmHg 90%
    04:00 +10°C° 0 mm 3 mps 759 mmHg 87%
    05:00 +11°C° 0 mm 3 mps 759 mmHg 84%
    06:00 +12°C° 0 mm 4 mps 759 mmHg 80%
    07:00 +13°C° 0 mm 4 mps 760 mmHg 77%
    08:00 +14°C° 0 mm 4 mps 760 mmHg 73%
    09:00 +15°C° 0 mm 4 mps 760 mmHg 69%
    10:00 +15°C° 0 mm 4 mps 760 mmHg 66%
    11:00 +17°C° 0 mm 4 mps 760 mmHg 63%
    12:00 +18°C° 0 mm 4 mps 760 mmHg 60%
    13:00 +18°C° 0 mm 4 mps 760 mmHg 60%
    14:00 +18°C° 0 mm 4 mps 760 mmHg 61%
    15:00 +18°C° 0 mm 4 mps 760 mmHg 61%
    16:00 +18°C° 0 mm 4 mps 760 mmHg 63%
    17:00 +17°C° 0 mm 4 mps 760 mmHg 65%
    18:00 +15°C° 0 mm 5 mps 760 mmHg 67%
    19:00 +14°C° 0 mm 4 mps 761 mmHg 71%
    20:00 +13°C° 0 mm 4 mps 761 mmHg 75%
    21:00 +11°C° 0 mm 4 mps 762 mmHg 79%
    22:00 +10°C° 0 mm 3 mps 762 mmHg 81%
    23:00 +10°C° 0 mm 3 mps 762 mmHg 82%

    10 June, Wednesday

    Time Temperature Precipitation Wind Pressure Humidity
    00:00 +9°C° 0 mm 3 mps 762 mmHg 83%
    01:00 +9°C° 0 mm 3 mps 762 mmHg 85%
    02:00 +8°C° 0 mm 3 mps 762 mmHg 87%
    03:00 +8°C° 0 mm 3 mps 762 mmHg 89%
    04:00 +9°C° 0 mm 3 mps 762 mmHg 84%
    05:00 +10°C° 0 mm 3 mps 762 mmHg 79%
    06:00 +11°C° 0 mm 3 mps 762 mmHg 74%
    07:00 +12°C° 0 mm 4 mps 762 mmHg 68%
    08:00 +14°C° 0 mm 4 mps 762 mmHg 62%
    09:00 +17°C° 0 mm 4 mps 762 mmHg 56%
    10:00 +18°C° 0 mm 4 mps 762 mmHg 53%
    11:00 +19°C° 0 mm 4 mps 762 mmHg 50%
    12:00 +21°C° 0 mm 4 mps 762 mmHg 46%
    13:00 +21°C° 0 mm 4 mps 762 mmHg 47%
    14:00 +21°C° 0 mm 4 mps 762 mmHg 47%
    15:00 +21°C° 0 mm 5 mps 762 mmHg 47%
    16:00 +20°C° 0 mm 5 mps 762 mmHg 52%
    17:00 +19°C° 0 mm 5 mps 762 mmHg 56%
    18:00 +18°C° 0 mm 4 mps 762 mmHg 61%
    19:00 +17°C° 0 mm 4 mps 762 mmHg 67%
    20:00 +14°C° 0 mm 4 mps 763 mmHg 73%
    21:00 +12°C° 0 mm 4 mps 763 mmHg 79%
    22:00 +11°C° 0 mm 3 mps 763 mmHg 82%
    23:00 +10°C° 0 mm 3 mps 763 mmHg 86%

    11 June, Thursday

    Time Temperature Precipitation Wind Pressure Humidity
    00:00 +10°C° 0 mm 3 mps 763 mmHg 89%
    01:00 +9°C° 0 mm 3 mps 763 mmHg 90%
    02:00 +9°C° 0 mm 3 mps 763 mmHg 90%
    03:00 +8°C° 0 mm 3 mps 763 mmHg 91%
    04:00 +9°C° 0 mm 3 mps 763 mmHg 87%
    05:00 +10°C° 0 mm 3 mps 763 mmHg 83%
    06:00 +11°C° 0 mm 3 mps 763 mmHg 79%
    07:00 +13°C° 0 mm 3 mps 763 mmHg 72%
    08:00 +14°C° 0 mm 4 mps 763 mmHg 64%
    09:00 +17°C° 0 mm 4 mps 763 mmHg 57%
    10:00 +18°C° 0 mm 4 mps 763 mmHg 54%
    11:00 +19°C° 0 mm 4 mps 762 mmHg 52%
    12:00 +20°C° 0 mm 4 mps 762 mmHg 49%
    13:00 +20°C° 0 mm 5 mps 762 mmHg 49%
    14:00 +21°C° 0 mm 5 mps 762 mmHg 50%
    15:00 +21°C° 0 mm 5 mps 761 mmHg 50%
    16:00 +20°C° 0 mm 5 mps 761 mmHg 54%
    17:00 +20°C° 0 mm 5 mps 761 mmHg 57%
    18:00 +19°C° 0 mm 4 mps 761 mmHg 61%
    19:00 +17°C° 0 mm 4 mps 761 mmHg 66%
    20:00 +15°C° 0 mm 4 mps 762 mmHg 71%
    21:00 +13°C° 0 mm 4 mps 762 mmHg 76%
    22:00 +12°C° 0 mm 3 mps 762 mmHg 81%
    23:00 +12°C° 0 mm 3 mps 761 mmHg 85%
    Show more